Regional Weather Roundup
Issued by NWS Sterling, VA

Home | Current Version | Previous Version | Text Only | Print | Product List | Glossary On
Versions: 1 2 3 4 5 6 7 8 9 10 11 12 13 14 15 16 17 18 19 20 21 22 23 24 25 26 27 28 29 30 31 32 33 34 35 36 37 38 39 40 41 42 43 44 45 46 47 48 49 50
000
ASUS41 KLWX 300610
RWRLWX

REGIONAL WEATHER ROUNDUP
NATIONAL WEATHER SERVICE BALTIMORE MD/WASHINGTON DC
200 AM EDT SUN AUG 30 2015

Note: "FAIR" indicates few or no clouds below 12,000 feet
with no significant weather and/or obstructions to visibility.
 TC=TEMPERATURE CELSIUS

 * =Non NWS site. Station does not report precipitation (e.g. rain,
    snow, etc.), thunder, or fog.

DCZ001-MDZ009-015-VAZ040>042-051-053>054-300700-
WASHINGTON METRO

CITY           SKY/WX    TMP DP  RH WIND       PRES   REMARKS
WASHINGTON NAT MOCLDY    72  64  76 S8        30.11F
DULLES         FAIR      69  64  84 S5        30.11F
ANDREWS AFB    FAIR      70  64  82 S10       30.10F
FT BELVOIR     FAIR      71  64  79 SE5       30.10F
QUANTICO       CLOUDY    74  63  68 SW9G18    30.12F
COLLEGE PARK*  FAIR      73  63  68 S3        30.10F
LEESBURG*      FAIR      72  68  88 S6        30.11F
MANASSAS*      FAIR      68  66  94 S3        30.11F
GAITHERSBURG*  FAIR      70  63  78 CALM      30.15F

$$

MDZ006>007-011-014-300700-
BALTIMORE METRO

CITY           SKY/WX    TMP DP  RH WIND       PRES   REMARKS
BWI AIRPORT    FAIR      70  63  78 CALM      30.10F
MD SCIENCE CTR   N/A     73  63  70 MISG      30.11F
MARTIN STATE   FAIR      73  68  83 CALM      30.12F
ANNAPOLIS      FAIR      72  63  73 S6        30.10F
FORT MEADE*    FAIR      63  61  94 CALM      30.13F

$$

MDZ012-015-019>023-300700-
MARYLAND EASTERN SHORE

CITY           SKY/WX    TMP DP  RH WIND       PRES   REMARKS
OCEAN CITY     FAIR      66  62  87 CALM      30.12F
SALISBURY      FAIR      63  61  93 CALM      30.12F
BAY BRIDGE AP*   N/A     73  64  73 S6        30.11F
CAMBRIDGE*     FAIR      66  63  88 CALM      30.11F

$$

MDZ017>025-300700-
SOUTHERN MARYLAND

CITY           SKY/WX    TMP DP  RH WIND       PRES   REMARKS
PATUXENT RIVER FAIR      68  64  87 MISG      30.11F
ST INIGOES     FAIR      73  65  75 S6        30.11F
LEONARDTOWN*   FAIR      68  63  83 CALM      30.14F

$$

MDZ003>005-300700-
NORTH CENTRAL MARYLAND

CITY           SKY/WX    TMP DP  RH WIND       PRES   REMARKS
FREDERICK*     FAIR      66  66 100 CALM      30.13F
HAGERSTOWN APT FAIR      73  63  70 SE5       30.10F
WESTMINSTER*   FAIR      72  64  78 S6        30.12F

$$

MDZ501>502-300700-
WESTERN MARYLAND

CITY           SKY/WX    TMP DP  RH WIND       PRES   REMARKS
OAKLAND*       FAIR      61  55  82 SW5       30.20F
CUMBERLAND*    FAIR      64  63  94 CALM      30.14F

$$

VAZ025>031-300700-
SHENANDOAH VALLEY

CITY           SKY/WX    TMP DP  RH WIND       PRES   REMARKS
WINCHESTER*    FAIR      66  61  82 S3        30.10F
FRONT ROYAL*   FAIR      68  63  83 S3        30.10F
LURAY*         FAIR      63  63 100 CALM      30.13S
NEW MARKET*    FAIR      63  61  92 CALM      30.12S
STAUNTON*      FAIR      66  61  84 CALM      30.17S
WAYNESBORO*    FAIR      68  60  76 SW3       30.15F

$$

WVZ021-048>050-054>055-300700-
EASTERN WEST VIRGINIA PANHANDLE

CITY           SKY/WX    TMP DP  RH WIND       PRES   REMARKS
MARTINSBURG    FAIR      64  62  93 SW3       30.10F
PETERSBURG*    FAIR      61  61  99 CALM      30.14S FOG

$$

VAZ036>039-050-300700-
CENTRAL FOOTHILLS

CITY           SKY/WX    TMP DP  RH WIND       PRES   REMARKS
CHARLOTTESVILL FAIR      70  63  78 SW5       30.12F
CULPEPER*      FAIR      65  64  94 CALM      30.12F
ORANGE*        FAIR      70  64  83 CALM      30.13F
GORDONSVILLE*  FAIR      65  64  96 CALM      30.12F
WARRENTON*     FAIR      68  66  91 CALM      30.11F

$$

VAZ055>057-300700-
NORTH AND CENTRAL PIEDMONT

CITY           SKY/WX    TMP DP  RH WIND       PRES   REMARKS
FREDERICKSBRG* MOCLDY    72  64  76 SE3       30.11F
STAFFORD*      FAIR      69  62  78 CALM      30.15F

$$

NCZ024-NYZ072-PAZ021-071-VAZ022-071-300700-
OTHER REGIONAL OBSERVATIONS

CITY           SKY/WX    TMP DP  RH WIND       PRES   REMARKS
NEW YORK CITY  FAIR      74  58  57 CALM      30.13F
PHILADELPHIA   MOCLDY    72  62  71 S7        30.12F
PITTSBURGH     CLOUDY    73  62  68 SW3       30.09F
ROANOKE        FAIR      68  62  81 W3        30.17F
RICHMOND       FAIR      68  62  81 S3        30.14F
RALEIGH        MOCLDY    70  61  73 CALM      30.15F

$$

ANZ530>537-300700-
MARINE OBSERVATIONS

STATION/POSITION TIME  TEMP    WIND        PRES
                       AIR SEA DIR/SP/G
                 (UTC) (F)     (DEG/KT/KT) (MB)
THOMAS PT LIGHT  0600   75 78  200/ 16/ 18 1019.8F

$$




USA.gov is the U.S. government's official web portal to all federal, state and local government web resources and services.